Weather Roundup
Issued by NWS

Home | Current Version | Previous Version | Graphics & Text | Print | Product List | Glossary Off
Versions: 1 2 3 4 5 6 7 8 9 10 11 12 13 14 15 16 17 18 19 20 21 22 23 24 25 26 27 28 29 30 31 32 33 34 35 36 37 38 39 40 41 42 43 44 45 46 47 48 49 50

000
NZUS93 KARX 230210
HRRWXR

CURRENT HOURLY OBSERVATIONS ACROSS
MUCH OF THE UPPER MISSISSIPPI VALLEY
NATIONAL WEATHER SERVICE LA CROSSE WI
900 PM CDT FRI MAY 22 2015


...SOUTHEAST MINNESOTA...


CITY           SKY/WX    TMP DP  RH WIND       PRES   REMARKS
ROCHESTER      CLOUDY    63  37  38 E5        30.20S
ROCHESTER/MAYO FAIR      68  35  30 E3        30.20S
WINONA         CLOUDY    59  50  72 CALM      30.20S
AUSTIN         CLOUDY    63  45  51 CALM      30.19R
ALBERT LEA     CLOUDY    64  43  45 CALM      30.18S
DODGE CENTER   CLOUDY    64  36  34 E5        30.20R
PRESTON        CLOUDY    62  35  36 CALM      30.21R
OWATONNA       CLOUDY    63  36  36 E6        30.19R
FARIBAULT      CLOUDY    64  37  36 E3        30.19S
$$

...ELSEWHERE IN MINNESOTA...


CITY           SKY/WX    TMP DP  RH WIND       PRES   REMARKS
MINNEAPOLIS    MOCLDY    70  34  26 S3        30.18S
INTNL FALLS    CLEAR     61  40  45 SW3       30.09S
DULUTH         CLEAR     62  36  37 S6        30.16R
RED WING       MOCLDY    61  45  55 CALM      30.18S
REDWOOD FALLS  MOCLDY    69  32  25 E8        30.15R
MANKATO        CLOUDY    66  36  32 E6        30.17S
WORTHINGTON    CLOUDY    63  37  39 W18G24    30.18R
FAIRMONT       CLOUDY    66  34  30 SE6       30.17R
$$

...SOUTHWEST WISCONSIN...


CITY           SKY/WX    TMP DP  RH WIND       PRES   REMARKS
LA CROSSE      CLOUDY    63  41  44 NE3       30.19S
PRAIRIE DU CHI CLOUDY    63  48  59 CALM      30.19R
BOSCOBEL       CLOUDY    59  48  67 CALM      30.20S
LONE ROCK      CLOUDY    61  42  49 CALM      30.21R
PLATTEVILLE    CLOUDY    67  37  33 SE3       30.21R
FORT MC COY    CLOUDY    56  45  66 E3        30.22S
CAMP DOUGLAS   CLOUDY    54  48  81 NW1       30.21R
VIROQUA        FAIR      62  35  35 CALM      30.22R
WIS DELLS      CLOUDY    55  40  57 CALM      30.22R
$$

...ELSEWHERE IN WISCONSIN...


CITY           SKY/WX    TMP DP  RH WIND       PRES   REMARKS
MILWAUKEE      MOCLDY    48  29  47 S7        30.29R
MADISON        CLOUDY    61  40  45 SE13      30.23R
GREEN BAY      PTCLDY    54  30  40 S8        30.24R
EAU CLAIRE     MOCLDY    60  37  42 CALM      30.20R
BLACK RVR FLS  FAIR      54  43  65 CALM      30.21R
MEDFORD        CLEAR     56  37  49 SW3       30.22R
WAUSAU         CLEAR     61  39  44 SW3       30.20R
WIS RAPIDS     LGT RAIN  60  34  37 CALM      30.23R
MARSHFIELD     PTCLDY    61  36  39 CALM      30.22R
RICE LAKE      CLEAR     62  39  42 S3        30.21S
$$

...NORTHEAST IOWA...


CITY           SKY/WX    TMP DP  RH WIND       PRES   REMARKS
DECORAH        CLOUDY    64  37  36 E5        30.20R
MASON CITY     CLOUDY    65  40  39 CALM      30.19S
CHARLES CITY   CLOUDY    64  39  39 S5        30.19S
OELWEIN        CLOUDY    66  39  37 S6        30.20S
$$

...ELSEWHERE IN IOWA...


CITY           SKY/WX    TMP DP  RH WIND       PRES   REMARKS
DES MOINES     CLOUDY    65  45  48 SW7       30.21R
IOWA CITY      CLOUDY    66  48  52 CALM      30.21S
FORT DODGE     CLOUDY    61  43  51 SW7       30.21R
$$

...NORTHERN ILLINOIS...


CITY           SKY/WX    TMP DP  RH WIND       PRES   REMARKS
CHICAGO-OHARE  CLOUDY    53  28  38 E7        30.27R
CHICAGO-MIDWAY CLOUDY    55  32  41 E8        30.27S
MOLINE         CLOUDY    64  48  56 CALM      30.20R
ROCKFORD       CLOUDY    61  35  37 E5        30.26R
PEORIA         CLOUDY    72  42  34 W5        30.22R
$$

NOTE: "FAIR" INDICATES FEW OR NO CLOUDS BELOW 12,000 FEET WITH NO
SIGNIFICANT WEATHER AND/OR OBSTRUCTIONS TO VISIBILITY. WIND
SPEEDS ARE IN MILES-PER-HOUR.



USA.gov is the U.S. government's official web portal to all federal, state and local government web resources and services.